DW2342 Weather Reports


Display with metric or nautical units.
time (UTC)temp
F
wind
direction
speed
MPH
gust
MPH
rain 1hr
in
rain 24hr
in
rain mn
in
humidity
%
barometer
mb
20260507220026 49 196 5.0 13.0 0.00 0.00 0.00 78 1013.1
20260507214528 49 161 7.0 14.0 0.00 0.00 0.00 78 1013.0
20260507213026 50 165 7.0 13.0 0.00 0.00 0.00 78 1013.0
20260507211525 50 160 5.0 11.0 0.00 0.00 0.00 76 1013.1
20260507210038 50 182 6.0 13.0 0.00 0.00 0.00 75 1013.1
20260507204524 51 177 6.0 11.0 0.00 0.00 0.00 74 1013.0
20260507203023 51 196 5.0 14.0 0.00 0.00 0.00 73 1013.0
20260507201523 51 171 6.0 12.0 0.00 0.00 0.00 73 1012.8
20260507200026 52 175 5.0 13.0 0.00 0.00 0.00 72 1012.6
20260507194526 52 194 4.0 11.0 0.00 0.00 0.00 72 1012.5
20260507193023 52 161 5.0 14.0 0.00 0.00 0.00 71 1012.4
20260507191521 52 147 6.0 13.0 0.00 0.00 0.00 70 1012.3
20260507190023 53 169 6.0 11.0 0.00 0.00 0.00 68 1012.2
20260507184520 53 161 7.0 13.0 0.00 0.00 0.00 68 1012.3
20260507183025 53 188 6.0 13.0 0.00 0.00 0.00 68 1012.3
20260507181519 53 137 3.0 10.0 0.00 0.00 0.00 68 1012.2
20260507180021 53 160 4.0 13.0 0.00 0.00 0.00 68 1012.2
20260507174521 53 191 6.0 14.0 0.00 0.00 0.00 67 1012.3
20260507173019 53 171 8.0 14.0 0.00 0.00 0.00 67 1012.4
20260507171516 55 177 7.0 13.0 0.00 0.00 0.00 67 1012.3
20260507170016 55 167 7.0 15.0 0.00 0.00 0.00 67 1012.4
20260507164515 55 196 9.0 16.0 0.00 0.00 0.00 67 1012.5
20260507163014 55 159 8.0 15.0 0.00 0.00 0.00 68 1012.5
20260507161514 55 167 9.0 20.0 0.00 0.00 0.00 69 1012.6
20260507160016 55 157 7.0 14.0 0.00 0.00 0.00 69 1012.5
20260507154521 55 163 5.0 15.0 0.00 0.00 0.00 70 1012.5
20260507153027 55 175 7.0 12.0 0.00 0.00 0.00 69 1012.7
20260507151509 55 182 7.0 15.0 0.00 0.00 0.00 68 1012.7
20260507150009 55 186 7.0 18.0 0.00 0.00 0.00 72 1012.8
20260507144509 55 167 7.0 13.0 0.00 0.00 0.00 73 1012.8
20260507143009 54 161 7.0 13.0 0.00 0.00 0.00 73 1012.9
20260507141506 53 168 5.0 10.0 0.00 0.00 0.00 75 1013.2
20260507140010 52 182 6.0 13.0 0.00 0.00 0.00 72 1013.3
20260507134506 52 187 5.0 12.0 0.00 0.00 0.00 73 1013.3
20260507133005 52 231 6.0 12.0 0.00 0.00 0.00 74 1013.4
20260507131508 52 172 6.0 12.0 0.00 0.00 0.00 75 1013.4
20260507130012 52 205 4.0 12.0 0.00 0.00 0.00 76 1013.4
20260507124503 51 179 7.0 13.0 0.00 0.00 0.00 74 1013.5
20260507123002 52 182 6.0 13.0 0.00 0.00 0.00 71 1013.5
20260507121502 54 168 6.0 13.0 0.00 0.00 0.00 70 1013.4
20260507120002 54 205 5.0 14.0 0.00 0.00 0.00 69 1013.5
20260507114501 55 213 7.0 12.0 0.00 0.00 0.00 66 1013.5
20260507113103 55 180 7.0 14.0 0.00 0.00 0.00 65 1013.5
20260507111600 56 197 5.0 15.0 0.00 0.00 0.00 63 1013.4
20260507110059 55 227 7.0 20.0 0.00 0.00 0.00 63 1013.5
20260507104557 55 190 8.0 18.0 0.00 0.00 0.00 65 1013.4
20260507103055 55 184 9.0 17.0 0.00 0.00 0.00 67 1013.3
20260507101556 55 189 7.0 17.0 0.00 0.00 0.00 65 1013.3
20260507100050 54 176 11.0 18.0 0.00 0.00 0.00 67 1013.2
20260507094547 51 172 7.0 16.0 0.00 0.00 0.00 66 1013.2
20260507093049 50 169 8.0 16.0 0.00 0.00 0.00 68 1013.1
20260507091544 51 188 8.0 16.0 0.00 0.00 0.00 68 1013.1
20260507090041 50 179 8.0 14.0 0.00 0.00 0.00 67 1013.0
20260507084540 50 196 5.0 12.0 0.00 0.00 0.00 72 1013.2
20260507083037 50 142 6.0 14.0 0.00 0.00 0.00 70 1013.2
20260507081537 49 162 6.0 12.0 0.00 0.00 0.00 72 1013.2
20260507080040 49 180 4.0 10.0 0.00 0.00 0.00 74 1013.0
20260507074537 48 190 5.0 12.0 0.00 0.00 0.00 74 1013.0
20260507073037 49 136 4.0 11.0 0.00 0.00 0.00 72 1012.9
20260507071559 50 152 3.0 8.0 0.00 0.00 0.00 72 1012.9
20260507070033 49 105 5.0 10.0 0.00 0.00 0.00 73 1012.9
20260507064530 47 117 4.0 8.0 0.00 0.00 0.00 75 1013.0
20260507063031 47 141 3.0 9.0 0.00 0.00 0.00 75 1013.0
20260507061527 47 120 4.0 14.0 0.00 0.00 0.00 76 1013.1
20260507060025 46 62 2.0 14.0 0.00 0.00 0.00 76 1013.1
20260507054523 46 161 4.0 12.0 0.00 0.00 0.00 76 1013.0
20260507053022 46 150 6.0 14.0 0.00 0.00 0.00 76 1013.0
20260507051528 45 151 4.0 12.0 0.00 0.00 0.00 78 1012.9
20260507050015 44 171 4.0 8.0 0.00 0.00 0.00 78 1012.9
20260507044512 44 196 5.0 15.0 0.00 0.00 0.00 77 1012.9
20260507043011 44 132 6.0 15.0 0.00 0.00 0.00 77 1012.8
20260507041508 44 175 5.0 12.0 0.00 0.00 0.00 77 1012.8
20260507040006 44 165 4.0 16.0 0.00 0.00 0.00 77 1012.9
20260507034512 44 140 5.0 12.0 0.00 0.00 0.00 77 1012.8
20260507033008 44 142 6.0 16.0 0.00 0.00 0.00 77 1012.7
20260507031600 44 171 5.0 14.0 0.00 0.00 0.00 76 1012.9
20260507030059 44 179 5.0 15.0 0.00 0.00 0.00 76 1013.0
20260507024603 44 155 6.0 13.0 0.00 0.00 0.00 76 1013.0
20260507023053 44 165 5.0 13.0 0.00 0.00 0.00 76 1013.0
20260507021551 45 178 5.0 10.0 0.00 0.00 0.00 75 1013.0
20260507020049 45 189 7.0 14.0 0.00 0.00 0.00 75 1013.2
20260507014554 45 177 4.0 11.0 0.00 0.00 0.00 75 1013.2
20260507013048 45 155 4.0 11.0 0.00 0.00 0.00 75 1013.2
20260507011542 45 124 5.0 12.0 0.00 0.00 0.00 74 1013.2
20260507010040 45 175 4.0 10.0 0.00 0.00 0.00 72 1013.2
20260507004543 46 190 6.0 13.0 0.00 0.00 0.00 71 1013.3
20260507003037 46 207 6.0 11.0 0.00 0.00 0.00 69 1013.3
20260507001543 46 149 5.0 12.0 0.00 0.00 0.00 69 1013.3
20260507000036 46 162 4.0 12.0 0.00 0.00 0.00 69 1013.4
20260506234533 45 127 3.0 7.0 0.00 0.00 0.00 71 1013.4
20260506233030 46 160 1.0 9.0 0.00 0.00 0.00 70 1013.4
20260506231528 46 98 4.0 9.0 0.00 0.00 0.00 69 1013.4
20260506230026 46 109 7.0 13.0 0.00 0.00 0.00 68 1013.3
20260506224526 46 104 6.0 13.0 0.00 0.00 0.00 68 1013.4
20260506223025 46 123 6.0 12.0 0.00 0.00 0.00 69 1013.5
20260506221524 44 142 3.0 8.0 0.00 0.00 0.00 73 1013.6